This is the latest recevied weather packets stored in our database for station/object KD8TSA. If no packets are shown the sender has not sent any weather packets the latest 10 day(s).
| Time | Temp. | Humidity | Pressure | Rain* | Wind** | Luminosity | Snow |
|---|---|---|---|---|---|---|---|
| 1778244404 | 12.78° C | 65% | 1014 hPa | 0 mm | - | 176 W/m² | - |
| 1778244101 | 12.22° C | 67% | 1014.3 hPa | 0 mm | - | 232 W/m² | - |
| 1778243800 | 12.22° C | 69% | 1013.8 hPa | 0 mm | - | 144 W/m² | - |
| 1778243497 | 11.67° C | 69% | 1014 hPa | 0 mm | - | 292 W/m² | - |
| 1778243193 | 11.11° C | 70% | 1013.9 hPa | 0 mm | - | 108 W/m² | - |
| 1778242890 | 11.11° C | 71% | 1014.1 hPa | 0 mm | - | 188 W/m² | - |
| 1778242588 | 11.11° C | 71% | 1014 hPa | 0 mm | - | 138 W/m² | - |
| 1778242286 | 10.56° C | 72% | 1014 hPa | 0 mm | - | 115 W/m² | - |
| 1778241983 | 10° C | 73% | 1013.7 hPa | 0 mm | - | 188 W/m² | - |
| 1778241681 | 10° C | 73% | 1013.9 hPa | 0 mm | - | 118 W/m² | - |
| 1778241378 | 10° C | 73% | 1013.8 hPa | 0 mm | - | 113 W/m² | - |
| 1778241075 | 9.44° C | 74% | 1013.8 hPa | 0 mm | - | 87 W/m² | - |
| 1778240772 | 9.44° C | 73% | 1013.7 hPa | 0 mm | - | 88 W/m² | - |
| 1778240468 | 8.89° C | 73% | 1013.8 hPa | 0 mm | - | 65 W/m² | - |
| 1778240166 | 8.89° C | 74% | 1013.9 hPa | 0 mm | - | 67 W/m² | - |
| 1778239864 | 8.89° C | 74% | 1013.8 hPa | 0 mm | - | 49 W/m² | - |
| 1778239559 | 8.89° C | 75% | 1013.7 hPa | 0 mm | - | 41 W/m² | - |
| 1778239251 | 8.89° C | 76% | 1013.8 hPa | 0 mm | - | 35 W/m² | - |
| 1778238948 | 8.89° C | 75% | 1013.5 hPa | 0 mm | - | 38 W/m² | - |
| 1778238645 | 8.33° C | 75% | 1013.4 hPa | 0 mm | - | 33 W/m² | - |
| 1778238343 | 8.33° C | 76% | 1013.3 hPa | 0 mm | - | 31 W/m² | - |
| 1778238039 | 7.78° C | 77% | 1013.4 hPa | 0 mm | - | 27 W/m² | - |
| 1778237739 | 7.78° C | 77% | 1013.4 hPa | 0 mm | - | 23 W/m² | - |
| 1778237437 | 7.78° C | 76% | 1013.4 hPa | 0 mm | - | 17 W/m² | - |
| 1778237134 | 7.78° C | 76% | 1013.3 hPa | 0 mm | - | 12 W/m² | - |
* Rain latest hour (hover to see other rain measurements)
** Current wind speed in m/s (hover to see current wind gust speed)